Weather Service Report


593 
ASCA44 KEWX 211220
RWRMX 

LATIN AMERICA AND CARIBBEAN REGIONAL WEATHER ROUNDUP
NATIONAL WEATHER SERVICE AUSTIN/SAN ANTONIO TX
600 AM CST SUN DEC 21 2014

NOTE: "FAIR" INDICATED FEW OR NO CLOUDS BELOW 12,000 FEET WITH NO
SIGNIFICANT WEATHER AND/OR OBSTRUCTIONS TO VISIBILITY.

BAJA CALIFORNIA
  
CITY           SKY/WX    TMP DP  RH WIND       PRES   REMARKS
TIJUANA        CLEAR     55  50  82 E5        30.15S                  

NORTHWESTERN MEXICO
  
CITY           SKY/WX    TMP DP  RH WIND       PRES   REMARKS
DURANGO        CLEAR     32  16  51 E6        30.20S WCI  26          
OBREGON        CLEAR     46  39  76 NE3       29.96                   

NORTHEASTERN MEXICO
  
CITY           SKY/WX    TMP DP  RH WIND       PRES   REMARKS
CHIHUAHUA      CLEAR     32  23  69 S3        30.09                   
MONTERREY      FOG       52  50  93 CALM      30.08S VSB 1/4          
NUEVO LAREDO   CLOUDY    52  48  87 CALM      30.10                   
REYNOSA        CLOUDY    52  50  93 NW3       30.08  FOG              
TORREON        CLEAR     46  41  81 CALM      30.09                   
CD. VICTORIA   DRIZZLE   57  57 100 NW2       30.07  FOG              

WESTERN MEXICO
  
CITY           SKY/WX    TMP DP  RH WIND       PRES   REMARKS
AGUASCALIENTES CLEAR     50  36  57 S7        30.20  WCI  47          
COLIMA         CLEAR     70  52  52 CALM      30.02                   
DEL BAJIO      PTCLDY    52  45  76 CALM      30.25                   
GUADALAJARA    MOCLDY    50  41  71 CALM      30.15                   
MAZATLAN       CLEAR     54  50  87 N6        29.92S                  
P. VALLARTA    PTCLDY    68  66  94 NW5       29.95R                  
ZACATECAS      CLEAR     32  18  55 CALM      30.24                   

CENTRAL MEXICO
  
CITY           SKY/WX    TMP DP  RH WIND       PRES   REMARKS
MEXICO CITY    PTCLDY    54  39  58 CALM      30.27S                  
MORELIA        CLEAR     41  37  87 CALM      30.19                   
QUERETARO      CLEAR     46  43  87 CALM      30.25S                  
S. LUIS POTOSI FOG       50  48  93 CALM      30.18S VSB 1/4          
TAMPICO        DRIZZLE   63  61  94 NW9       30.03                   
TOLUCA         CLEAR     34  32  93 W7        30.36R WCI  28          

SOUTHERN MEXICO
  
CITY           SKY/WX    TMP DP  RH WIND       PRES   REMARKS
ACAPULCO       MOCLDY    73  72  94 N3        29.91R                  
OAXACA         MOCLDY    55  50  82 NW5       30.23                   
VERACRUZ       MOCLDY    72  66  83 NE6       29.99                   

YUCATAN PENINSULA
  
CITY           SKY/WX    TMP DP  RH WIND       PRES   REMARKS
CAMPECHE       FOG       70  70 100 CALM      29.96R VSB 1/4          
CANCUN         CLOUDY    73  72  94 SW6       29.97R                  
CD. DEL CARMEN PTCLDY    70  68  94 CALM      29.98                   
COZUMEL        PTCLDY    70  70 100 CALM      29.97R                  
MERIDA         FOG       70  70 100 CALM      29.98R VSB 1/8          
TAPACHULA      CLEAR     77  68  73 CALM      29.92R                  
TUX. GUTIERREZ PTCLDY    63  63 100 SE2       30.03  FOG              
VILLAHERMOSA   FOG       72  70  94 CALM      30.01  VSB 1/2          

CENTRAL AMERICA
  
CITY           SKY/WX    TMP DP  RH WIND       PRES   REMARKS
BELIZE CITY    PTCLDY    72  72 100 CALM      29.98R                  
MANAGUA        PTSUNNY   70  66  88 CALM      29.89S                  

CARIBBEAN
  
CITY           SKY/WX    TMP DP  RH WIND       PRES   REMARKS
ARUBA          MOSUNNY   82  73  74 E12       29.92R                  
CURACAO        MOSUNNY   82  73  74 E14       29.94R                  
KINGSTON       PTCLDY    75  66  73 NW7       29.97S                  
NASSAU         PTCLDY    63  61  94 CALM      30.07R                  
SAN JUAN       MOSUNNY   75  70  83 SE5       30.06R                  
SANTO DOMINGO  MOSUNNY   72  70  94 CALM      30.00S                  
ST. KITTS      MOSUNNY   79  73  83 NE13      30.03R                  

$$


Return to Home page


Western Regional Climate Center, wrcc@dri.edu